FW4636 Weather Reports


time (UTC)temp
C
wind
direction
speed
KPH
gust
KPH
rain 1hr
cm
rain 24hr
cm
rain mn
cm
humidity
%
barometer
mb
20260509135042 22 340 1.6 6.4 0.00 0.00 0.00 95 1008.5
20260509134539 22 340 0.0 3.2 0.00 0.00 0.00 95 1008.4
20260509134040 22 340 0.0 6.4 0.00 0.00 0.00 96 1008.5
20260509133536 22 340 0.0 6.4 0.00 0.00 0.00 95 1008.5
20260509133035 22 340 1.6 4.8 0.00 0.00 0.00 95 1008.3
20260509132534 22 340 0.0 6.4 0.00 0.00 0.00 95 1008.3
20260509132032 22 340 1.6 3.2 0.00 0.00 0.00 95 1008.3
20260509131540 22 340 0.0 3.2 0.00 0.00 0.00 95 1008.3
20260509131032 21 340 1.6 3.2 0.00 0.00 0.00 95 1008.3
20260509130531 21 340 1.6 3.2 0.00 0.00 0.00 95 1008.3
20260509130033 21 340 0.0 3.2 0.00 0.00 0.00 95 1008.2
20260509125530 21 340 1.6 3.2 0.00 0.00 0.00 96 1008.2
20260509125029 21 340 0.0 3.2 0.00 0.00 0.00 96 1008.2
20260509124534 21 340 0.0 1.6 0.00 0.00 0.00 95 1008.3
20260509124027 21 340 0.0 1.6 0.00 0.00 0.00 95 1008.4
20260509123526 21 339 0.0 1.6 0.00 0.00 0.00 95 1008.4
20260509123027 21 339 0.0 3.2 0.00 0.00 0.00 95 1008.4
20260509122526 21 340 0.0 6.4 0.00 0.00 0.00 95 1008.5
20260509122027 21 340 0.0 6.4 0.00 0.00 0.00 95 1008.6
20260509121536 21 319 0.0 3.2 0.00 0.00 0.00 95 1008.4
20260509121031 21 320 0.0 8.0 0.00 0.00 0.00 95 1008.5
20260509120524 21 320 1.6 9.7 0.00 0.00 0.00 95 1008.3
20260509120023 21 320 3.2 11.3 0.00 0.00 0.00 95 1008.4
20260509115523 21 320 6.4 11.3 0.00 0.00 0.00 95 1008.4
20260509115023 21 215 4.8 11.3 0.00 0.00 0.00 95 1008.0
20260509114523 21 215 1.6 11.3 0.00 0.00 0.00 95 1007.4
20260509114023 21 215 1.6 12.9 0.00 0.00 0.00 95 1007.3
20260509113522 21 214 1.6 16.1 0.00 0.00 0.00 95 1007.1
20260509113022 21 212 8.0 17.7 0.00 0.00 0.00 95 1006.9
20260509112521 21 200 9.7 17.7 0.00 0.00 0.00 95 1006.8
20260509112021 21 212 8.0 19.3 0.00 0.00 0.00 95 1006.6
20260509111522 21 212 6.4 19.3 0.00 0.00 0.00 95 1006.6
20260509111020 21 219 9.7 19.3 0.00 0.00 0.00 95 1006.9
20260509110519 21 207 6.4 17.7 0.00 0.00 0.00 95 1007.1
20260509110018 21 229 6.4 17.7 0.00 0.00 0.00 95 1007.0
20260509105518 21 240 8.0 25.7 0.00 0.00 0.00 95 1006.3
20260509105017 21 206 11.3 25.7 0.00 0.00 0.00 95 1006.0
20260509104517 21 186 9.7 30.6 0.00 0.00 0.00 95 1005.6
20260509104016 21 205 14.5 30.6 0.00 0.00 0.00 95 1005.6
20260509103515 21 221 14.5 25.7 0.00 0.00 0.00 95 1005.6
20260509103015 21 218 9.7 22.5 0.00 0.00 0.00 95 1005.5
20260509102515 21 205 9.7 25.7 0.00 0.00 0.00 95 1005.4
20260509102015 21 205 14.5 32.2 0.00 0.00 0.00 95 1005.4
20260509101513 21 180 12.9 32.2 0.00 0.00 0.00 95 1005.3
20260509101013 21 171 12.9 30.6 0.00 0.00 0.00 94 1005.4
20260509100512 21 158 14.5 30.6 0.00 0.00 0.00 94 1005.5
20260509100012 21 149 12.9 29.0 0.00 0.00 0.00 94 1005.7
20260509095510 21 177 9.7 20.9 0.00 0.00 0.00 94 1005.8
20260509095009 21 166 9.7 20.9 0.00 0.00 0.00 94 1006.1
20260509094508 21 222 11.3 20.9 0.00 0.00 0.00 94 1006.4
20260509094006 21 157 11.3 19.3 0.00 0.00 0.00 94 1006.5
20260509093505 21 200 9.7 17.7 0.00 0.00 0.00 94 1007.0
20260509093004 21 187 6.4 12.9 0.00 0.00 0.00 94 1007.4
20260509092503 21 187 4.8 12.9 0.00 0.00 0.00 94 1007.6
20260509092003 21 187 6.4 12.9 0.00 0.00 0.00 94 1007.6
20260509091502 21 185 4.8 12.9 0.00 0.00 0.00 94 1007.7
20260509091001 21 184 4.8 12.9 0.00 0.00 0.00 94 1008.0
20260509090601 21 183 3.2 9.7 0.00 0.00 0.00 94 1008.0
20260509090002 21 183 4.8 9.7 0.00 0.00 0.00 93 1008.0
20260509085559 21 183 4.8 9.7 0.00 0.00 0.00 93 1008.1
20260509085101 21 183 3.2 9.7 0.00 0.00 0.00 93 1008.2
20260509084604 21 183 3.2 8.0 0.00 0.00 0.00 93 1008.4
20260509084101 21 183 1.6 6.4 0.00 0.00 0.00 93 1008.4
20260509083559 21 183 1.6 4.8 0.00 0.00 0.00 93 1008.3
20260509083101 21 183 1.6 3.2 0.00 0.00 0.00 93 1008.4
20260509082602 21 183 0.0 0.0 0.00 0.00 0.00 93 1008.5
20260509082100 21 183 0.0 0.0 0.00 0.00 0.00 93 1008.5
20260509081559 21 183 0.0 0.0 0.00 0.00 0.00 93 1008.6
20260509081058 21 183 0.0 1.6 0.00 0.00 0.00 93 1008.6
20260509080558 21 183 0.0 3.2 0.00 0.00 0.00 93 1008.7
20260509075558 21 183 0.0 1.6 0.00 0.00 0.00 92 1008.8
20260509075101 21 183 0.0 6.4 0.00 0.00 0.00 92 1009.1
20260509074601 21 183 0.0 6.4 0.00 0.00 0.00 92 1009.2
20260509074058 21 183 0.0 8.0 0.00 0.00 0.00 92 1009.2
20260509073556 21 183 1.6 8.0 0.00 0.00 0.00 92 1009.1
20260509073056 21 183 1.6 6.4 0.00 0.00 0.00 92 1008.9
20260509072558 21 183 0.0 1.6 0.00 0.00 0.00 91 1009.0
20260509072056 21 183 0.0 1.6 0.00 0.00 0.00 91 1009.1
20260509071555 21 183 0.0 1.6 0.00 0.00 0.00 91 1009.0
20260509071055 21 183 0.0 3.2 0.00 0.00 0.00 91 1009.0
20260509070555 21 183 0.0 6.4 0.00 0.00 0.00 91 1008.8
20260509070054 21 183 1.6 6.4 0.00 0.00 0.00 91 1008.6
20260509065554 21 183 0.0 3.2 0.00 0.00 0.00 91 1008.7
20260509065054 21 183 0.0 3.2 0.00 0.00 0.00 91 1008.7
20260509064552 21 183 0.0 6.4 0.00 0.00 0.00 91 1008.6
20260509064051 21 183 1.6 8.0 0.00 0.00 0.00 91 1008.4
20260509063550 21 183 1.6 8.0 0.00 0.00 0.00 91 1008.3
20260509063101 21 183 1.6 9.7 0.00 0.00 0.00 91 1008.3
20260509062550 21 183 4.8 9.7 0.00 0.00 0.00 90 1008.1
20260509062050 21 183 3.2 8.0 0.00 0.00 0.00 90 1008.1
20260509061549 21 183 3.2 11.3 0.00 0.00 0.00 90 1008.1
20260509061049 21 183 4.8 11.3 0.00 0.00 0.00 90 1008.1
20260509060548 21 183 4.8 12.9 0.00 0.00 0.00 90 1008.1
20260509060055 21 183 6.4 14.5 0.00 0.00 0.00 90 1008.1
20260509055548 21 186 8.0 14.5 0.00 0.00 0.00 90 1008.1
20260509055046 22 196 6.4 11.3 0.00 0.00 0.00 90 1008.4
20260509054546 22 197 4.8 11.3 0.00 0.00 0.00 90 1008.7
20260509054043 22 197 4.8 9.7 0.00 0.00 0.00 89 1008.8
20260509053542 22 198 4.8 8.0 0.00 0.00 0.00 89 1008.9
20260509053106 22 198 1.6 4.8 0.00 0.00 0.00 89 1009.0
20260509052540 22 198 0.0 3.2 0.00 0.00 0.00 89 1009.2
20260509052038 22 198 1.6 3.2 0.00 0.00 0.00 89 1009.1
20260509051537 22 198 0.0 0.0 0.00 0.00 0.00 88 1009.0
20260509051036 22 198 0.0 0.0 0.00 0.00 0.00 88 1009.0
20260509050535 22 198 0.0 0.0 0.00 0.00 0.00 88 1008.9
20260509050032 22 198 0.0 0.0 0.00 0.00 0.00 88 1009.0
20260509045533 22 198 0.0 0.0 0.00 0.00 0.00 88 1009.0
20260509045032 22 198 0.0 0.0 0.00 0.00 0.00 88 1008.9
20260509044534 22 198 0.0 0.0 0.00 0.00 0.00 88 1008.9
20260509044033 22 198 0.0 0.0 0.00 0.00 0.00 88 1008.8
20260509043532 22 198 0.0 0.0 0.00 0.00 0.00 88 1008.7
20260509043032 22 198 0.0 0.0 0.00 0.00 0.00 87 1008.6
20260509042532 22 198 0.0 0.0 0.00 0.00 0.00 87 1008.5
20260509042034 22 198 0.0 0.0 0.00 0.00 0.00 87 1008.4
20260509041540 22 198 0.0 1.6 0.00 0.00 0.00 87 1008.5
20260509041034 22 198 0.0 1.6 0.00 0.00 0.00 87 1008.4
20260509040531 22 198 0.0 3.2 0.00 0.00 0.00 87 1008.4
20260509040032 22 198 0.0 6.4 0.00 0.00 0.00 87 1008.3
20260509035532 22 198 0.0 8.0 0.00 0.00 0.00 86 1008.1
20260509035031 22 198 4.8 8.0 0.00 0.00 0.00 86 1007.9
20260509034531 22 198 4.8 8.0 0.00 0.00 0.00 86 1008.0
20260509034030 22 198 1.6 6.4 0.00 0.00 0.00 86 1008.1
20260509033530 22 198 0.0 0.0 0.00 0.00 0.00 86 1008.2
20260509033030 22 198 0.0 0.0 0.00 0.00 0.00 86 1008.2
20260509032530 22 198 0.0 0.0 0.00 0.00 0.00 86 1008.2
20260509032030 22 198 0.0 0.0 0.00 0.00 0.00 86 1008.2
20260509031531 22 198 0.0 0.0 0.00 0.00 0.00 86 1008.1
20260509031030 22 198 0.0 0.0 0.00 0.00 0.00 86 1008.1
20260509030530 22 198 0.0 0.0 0.00 0.00 0.00 85 1008.0
20260509030031 22 198 0.0 0.0 0.00 0.00 0.00 85 1008.0
20260509025529 22 198 0.0 0.0 0.00 0.00 0.00 85 1007.8
20260509025029 22 198 0.0 0.0 0.00 0.00 0.00 85 1007.7
20260509024529 22 198 0.0 0.0 0.00 0.00 0.00 85 1007.5
20260509024033 22 198 0.0 0.0 0.00 0.00 0.00 84 1007.4
20260509023529 22 198 0.0 0.0 0.00 0.00 0.00 85 1007.5
20260509023029 23 198 0.0 0.0 0.00 0.00 0.00 84 1007.3
20260509022528 23 198 0.0 0.0 0.00 0.00 0.00 84 1007.3
20260509022029 23 198 0.0 0.0 0.00 0.00 0.00 84 1007.4
20260509021529 23 198 0.0 0.0 0.00 0.00 0.00 84 1007.3
20260509021028 23 198 0.0 1.6 0.00 0.00 0.00 83 1007.3
20260509020529 23 198 0.0 1.6 0.00 0.00 0.00 83 1007.3
20260509020029 23 198 0.0 0.0 0.00 0.00 0.00 83 1007.1
20260509015528 23 198 0.0 1.6 0.00 0.00 0.00 83 1007.2
20260509015027 23 198 0.0 6.4 0.00 0.00 0.00 83 1007.1
20260509014527 23 198 0.0 6.4 0.00 0.00 0.00 83 1007.0
20260509014030 23 198 1.6 11.3 0.00 0.00 0.00 83 1006.9
20260509013527 23 198 3.2 11.3 0.00 0.00 0.00 83 1006.9
20260509013029 23 90 0.0 6.4 0.00 0.00 0.00 82 1006.8
20260509012529 23 90 0.0 6.4 0.00 0.00 0.00 82 1006.7
20260509012027 23 90 1.6 6.4 0.00 0.00 0.00 82 1006.6
20260509011530 23 90 1.6 4.8 0.00 0.00 0.00 82 1006.5
20260509011027 23 90 0.0 8.0 0.00 0.00 0.00 82 1006.5
20260509010526 23 90 1.6 8.0 0.00 0.00 0.00 82 1006.5
20260509010039 23 90 0.0 6.4 0.00 0.00 0.00 81 1006.4
20260509005528 23 90 0.0 6.4 0.00 0.00 0.00 81 1006.5
20260509005030 23 90 0.0 8.0 0.00 0.00 0.00 81 1006.5
20260509004529 23 90 1.6 11.3 0.00 0.00 0.00 81 1006.4
20260509004025 23 90 1.6 11.3 0.00 0.00 0.00 81 1006.4
20260509003526 23 165 1.6 9.7 0.00 0.00 0.00 80 1006.4
20260509003026 23 165 3.2 9.7 0.00 0.00 0.00 80 1006.5
20260509002525 23 165 1.6 9.7 0.00 0.00 0.00 80 1006.6
20260509002025 23 165 1.6 14.5 0.00 0.00 0.00 80 1006.6
20260509001525 23 165 6.4 17.7 0.00 0.00 0.00 80 1006.6
20260509001025 23 173 6.4 17.7 0.00 0.00 0.00 79 1006.6
20260509000525 23 136 6.4 16.1 0.00 0.00 0.00 79 1006.5
20260509000025 23 153 4.8 20.9 0.00 0.00 0.00 79 1006.4
20260508235525 23 154 9.7 20.9 0.00 0.00 0.00 79 1006.4
20260508235025 23 179 8.0 14.5 0.00 0.00 0.00 78 1006.5
20260508234525 23 185 6.4 19.3 0.00 0.00 0.00 78 1006.5
20260508234026 23 187 9.7 22.5 0.00 0.00 0.00 78 1006.4
20260508233526 23 153 11.3 22.5 0.00 0.00 0.00 78 1006.2
20260508233023 23 174 4.8 24.1 0.00 0.00 0.00 78 1006.1
20260508232523 23 150 12.9 25.7 0.00 0.00 0.00 77 1006.1
20260508232022 23 157 11.3 25.7 0.00 0.00 0.00 77 1006.2
20260508231522 23 184 11.3 19.3 0.00 0.00 0.00 77 1006.4
20260508231025 23 184 8.0 20.9 0.00 0.00 0.00 77 1006.4
20260508230520 23 170 12.9 20.9 0.00 0.00 0.00 77 1006.4
20260508230034 23 184 11.3 22.5 0.00 0.00 0.00 77 1006.5
20260508225519 23 182 8.0 22.5 0.00 0.00 0.00 77 1006.6
20260508225020 23 176 11.3 24.1 0.00 0.00 0.00 77 1006.7
20260508224526 23 195 11.3 24.1 0.00 0.00 0.00 77 1006.7
20260508224018 23 184 8.0 22.5 0.00 0.00 0.00 77 1006.7
20260508223519 23 176 12.9 29.0 0.00 0.00 0.00 76 1006.7
20260508223018 23 182 14.5 29.0 0.00 0.00 0.00 76 1006.9
20260508222519 23 165 4.8 19.3 0.00 0.00 0.00 76 1006.9
20260508222016 23 160 9.7 19.3 0.00 0.00 0.00 75 1007.1
20260508221534 23 150 6.4 17.7 0.00 0.00 0.00 75 1007.1
20260508221015 23 152 8.0 17.7 0.00 0.00 0.00 74 1007.2
20260508220517 23 143 8.0 14.5 0.00 0.00 0.00 74 1007.4
20260508220013 23 144 8.0 14.5 0.00 0.00 0.00 73 1007.6
20260508215517 23 134 6.4 12.9 0.00 0.00 0.00 72 1007.7
20260508215011 23 136 3.2 9.7 0.00 0.00 0.00 73 1007.7
20260508214510 23 136 1.6 9.7 0.00 0.00 0.00 72 1007.8
20260508214010 23 136 1.6 6.4 0.00 0.00 0.00 72 1007.9
20260508213508 23 136 0.0 6.4 0.00 0.00 0.00 74 1008.0
20260508213015 23 136 1.6 6.4 0.00 0.00 0.00 74 1008.2
20260508212509 23 136 0.0 3.2 0.00 0.00 0.00 75 1008.2
20260508212005 23 136 0.0 6.4 0.00 0.00 0.00 75 1008.3
20260508211505 22 136 0.0 6.4 0.00 0.00 0.00 75 1008.4
20260508211003 22 136 0.0 3.2 0.00 0.00 0.00 77 1008.5
20260508210503 22 136 0.0 3.2 0.00 0.00 0.00 76 1008.6
20260508210002 22 136 1.6 9.7 0.00 0.00 0.00 76 1008.6
20260508205508 22 136 0.0 9.7 0.00 0.00 0.00 76 1008.6
20260508205004 22 136 4.8 9.7 0.00 0.00 0.00 75 1008.5
20260508204503 22 136 4.8 8.0 0.00 0.00 0.00 75 1008.6
20260508204000 22 136 3.2 8.0 0.00 0.00 0.00 75 1008.8
20260508203600 22 136 3.2 8.0 0.00 0.00 0.00 75 1008.9
20260508203104 22 136 0.0 3.2 0.00 0.00 0.00 75 1009.0
20260508202559 22 136 0.0 3.2 0.00 0.00 0.00 75 1009.1
20260508202058 22 136 0.0 3.2 0.00 0.00 0.00 76 1009.3
20260508201557 22 136 0.0 3.2 0.00 0.00 0.00 76 1009.2
20260508201057 22 136 0.0 11.3 0.00 0.00 0.00 76 1009.2
20260508200557 22 136 0.0 12.9 0.00 0.00 0.00 76 1009.2
20260508200100 22 136 6.4 16.1 0.00 0.00 0.00 75 1009.1
20260508195555 22 134 8.0 16.1 0.00 0.00 0.00 77 1009.0
20260508195054 21 113 8.0 14.5 0.00 0.00 0.00 78 1008.9
20260508194554 21 92 3.2 8.0 0.00 0.00 0.00 79 1009.0
20260508194052 21 92 1.6 8.0 0.00 0.00 0.00 78 1009.2
20260508193552 21 92 0.0 8.0 0.00 0.00 0.00 78 1009.4
20260508193057 21 92 3.2 9.7 0.00 0.00 0.00 77 1009.5
20260508192554 21 92 4.8 9.7 0.00 0.00 0.00 77 1009.3
20260508192051 21 91 4.8 11.3 0.00 0.00 0.00 77 1009.3
20260508191555 21 169 3.2 11.3 0.00 0.00 0.00 76 1009.8
20260508191048 21 169 3.2 8.0 0.00 0.00 0.00 77 1009.7
20260508190549 21 169 1.6 6.4 0.00 0.00 0.00 78 1009.8
20260508190051 21 169 1.6 6.4 0.00 0.00 0.00 75 1009.8
20260508185548 21 169 0.0 9.7 0.00 0.00 0.00 75 1009.8
20260508185047 21 169 3.2 11.3 0.00 0.00 0.00 74 1010.0
20260508184547 21 169 3.2 12.9 0.00 0.00 0.00 75 1009.9
20260508184046 21 169 4.8 12.9 0.00 0.00 0.00 75 1010.2
20260508183545 21 169 4.8 11.3 0.00 0.00 0.00 75 1010.3
20260508183044 21 167 3.2 12.9 0.00 0.00 0.00 75 1010.2
20260508182542 21 168 6.4 16.1 0.00 0.00 0.00 74 1010.4
20260508182042 21 166 6.4 17.7 0.00 0.00 0.00 73 1010.6
20260508181543 21 167 8.0 17.7 0.00 0.00 0.00 73 1010.7
20260508181042 21 149 6.4 16.1 0.00 0.00 0.00 73 1010.7
20260508180542 21 145 8.0 19.3 0.00 0.00 0.00 72 1010.7
20260508180042 21 130 6.4 20.9 0.00 0.00 0.00 71 1010.7
20260508175542 21 142 11.3 20.9 0.00 0.00 0.00 71 1010.7
20260508175045 21 129 8.0 17.7 0.00 0.00 0.00 72 1010.8
20260508174541 21 125 9.7 20.9 0.00 0.00 0.00 72 1010.6
20260508174039 21 137 11.3 20.9 0.00 0.00 0.00 72 1010.6
20260508173538 21 146 4.8 17.7 0.00 0.00 0.00 73 1010.8
20260508173036 21 146 8.0 17.7 0.00 0.00 0.00 72 1011.0
20260508172536 21 145 9.7 17.7 0.00 0.00 0.00 73 1011.2
20260508172034 21 138 4.8 17.7 0.00 0.00 0.00 74 1011.1
20260508171533 21 137 8.0 19.3 0.00 0.00 0.00 73 1011.1
20260508171031 21 138 9.7 19.3 0.00 0.00 0.00 73 1011.2
20260508170531 21 130 9.7 16.1 0.00 0.00 0.00 73 1011.5
20260508170030 21 129 9.7 16.1 0.00 0.00 0.00 73 1011.6
20260508165531 21 128 6.4 16.1 0.00 0.00 0.00 73 1011.6
20260508165030 21 126 6.4 16.1 0.00 0.00 0.00 72 1011.7
20260508164534 20 123 8.0 19.3 0.00 0.00 0.00 72 1011.8
20260508164028 20 122 8.0 19.3 0.00 0.00 0.00 72 1011.9
20260508163525 20 126 6.4 17.7 0.00 0.00 0.00 73 1012.0
20260508163024 20 123 9.7 17.7 0.00 0.00 0.00 73 1011.9
20260508162523 20 126 11.3 17.7 0.00 0.00 0.00 73 1012.0
20260508162023 20 114 8.0 12.9 0.00 0.00 0.00 74 1012.0
20260508161521 20 114 8.0 11.3 0.00 0.00 0.00 75 1012.3
20260508161021 20 114 6.4 11.3 0.00 0.00 0.00 76 1012.3
20260508160519 20 114 4.8 12.9 0.00 0.00 0.00 76 1012.4
20260508160024 20 114 4.8 12.9 0.00 0.00 0.00 76 1012.4
20260508155522 20 113 6.4 12.9 0.00 0.00 0.00 76 1012.4
20260508155018 20 114 8.0 16.1 0.00 0.00 0.00 75 1012.5
20260508154518 20 114 11.3 16.1 0.00 0.00 0.00 76 1012.6
20260508154016 19 103 3.2 11.3 0.00 0.00 0.00 79 1012.6
20260508153518 19 102 4.8 11.3 0.00 0.00 0.00 78 1012.5
20260508153014 19 102 3.2 11.3 0.00 0.00 0.00 79 1012.6
20260508152512 19 102 8.0 11.3 0.00 0.00 0.00 80 1012.7
20260508152011 18 102 4.8 12.9 0.00 0.00 0.00 80 1012.7
20260508151511 18 102 6.4 12.9 0.00 0.00 0.00 80 1012.7
20260508151011 18 102 4.8 9.7 0.00 0.00 0.00 81 1012.8
20260508150510 18 102 3.2 9.7 0.00 0.00 0.00 81 1012.8
20260508150010 18 102 1.6 8.0 0.00 0.00 0.00 82 1012.9
20260508145512 18 102 3.2 9.7 0.00 0.00 0.00 81 1012.8
20260508145010 18 102 3.2 9.7 0.00 0.00 0.00 82 1012.7
20260508144509 18 102 3.2 8.0 0.00 0.00 0.00 81 1012.7
20260508144008 18 102 3.2 9.7 0.00 0.00 0.00 82 1012.7
20260508143508 18 102 3.2 9.7 0.00 0.00 0.00 82 1012.8
20260508143007 18 103 3.2 8.0 0.00 0.00 0.00 82 1012.7
20260508142507 18 102 1.6 4.8 0.00 0.00 0.00 82 1012.7
20260508142006 18 103 3.2 4.8 0.00 0.00 0.00 82 1012.7
20260508141505 18 103 0.0 8.0 0.00 0.00 0.00 83 1012.7
20260508141004 17 102 3.2 8.0 0.00 0.00 0.00 82 1012.7
20260508140503 17 103 3.2 8.0 0.00 0.00 0.00 83 1012.9
20260508140003 17 103 0.0 6.4 0.00 0.00 0.00 84 1012.9